www.pogodaiklimat.ru

АРХИВ ПОГОДЫ в Солт-Лейк-Сити

Время (UTC), дата Ветер
(напр.,м/с)
 
Видим.   Явления Облачность Т
(С)
Тd
(С)
f
(%)
Тe
(С)
Тes
(С)
Комфортность

P
(гПа)

Po
(гПа)
Тmin
(С)
Tmax
(С)
R
(мм)
SD
(см)
08:54 14.07 ЮВ  16 км    2/0 4500 м
[средняя] 
+23.3  +11.7  48  +26  +26  жарко  1011.8  871.9         
09:54 14.07 ЮВ  16 км    ясно  +22.2  +11.7  51  +24  +24  комфорт  1012.2  872.2         
10:54 14.07 ЮВ  16 км    2/0 3600 м
[средняя] 
+20.6  +12.2  59  +23  +23  комфорт  1012.8  872.2  +20.6  +25.0     
11:54 14.07 ЮВ  16 км    2/0 3600 м
[средняя] 
+22.8  +11.1  48  +25  +25  комфорт  1013.4  872.8         
12:54 14.07 ЮВ  16 км    5/0 3600 м
[средняя] 
+23.9  +11.7  46  +25  +26  комфорт  1013.6  872.8         
13:54 14.07 Ю  16 км    2/0 3600 м
[средняя] 
+26.1  +10.6  38  +27  +27  жарко  1013.4  873.1         
14:54 14.07 Ю  16 км    2/0 3000 м
[средняя] 
+28.3  +11.1  34  +29  +30  жарко  1013.2  873.1         
15:54 14.07 ЮВ  16 км    5/0 3000 м
[средняя] 
+30.6  +11.7  31  +31  +35  жарко  1012.9  872.8         
16:54 14.07 Ю  7
{12} 
16 км    5/0 3000 м
[средняя] 
+33.3  +9.4  23  +32  +34  жарко  1012.4  872.5  +20.6  +33.9     
17:54 14.07 Ю  16 км    5/0 3000 м
[средняя] 
+33.9  +10.0  23  +33  +35  жарко  1012.1  872.2         
18:54 14.07 ЮВ  16 км    8/0 3000 м
[средняя] 
+35.0  +10.0  22  +34  +36  очень
жарко 
1011.5  871.6         
19:54 14.07 Ю  16 км    8/0 3300 м
[средняя] 
+36.7  +9.4  19  +35  +37  очень
жарко 
1010.5  871.1         
20:54 14.07 Ю  16 км    8/0 3300 м
[средняя верхняя] 
+35.6  +8.9  20  +34  +37  очень
жарко 
1010.2  870.8         
21:54 14.07 Ю  16 км    8/0 3300 м
[средняя верхняя] 
+35.6  +8.3  19  +34  +38  очень
жарко 
1009.2  869.6         
22:54 14.07 Ю  5
{9} 
16 км    8/0 3300 м
[средняя верхняя] 
+36.1  +8.3  18  +34  +36  очень
жарко 
1008.6  869.0  +33.3  +37.2  1.8   
23:54 14.07 СЗ  16 км    8/0 3300 м
[средняя верхняя] 
+35.6  +8.3  19  +34  +36  очень
жарко 
1008.1  868.7         
00:54 15.07 З  16 км    8/0 3300 м
[средняя] 
+35.6  +8.3  19  +34  +34  очень
жарко 
1007.7  868.7         
01:54 15.07   16 км    8/0 3300 м
[средняя] 
+32.8  +8.9  23  +32  +32  жарко  1007.7  868.4         
02:54 15.07 ЮВ  16 км    8/0 3300 м
[средняя] 
+30.6  +8.9  26  +30  +30  жарко  1008.2  869.0         
03:54 15.07 ЮВ  16 км    5/0 3300 м
[средняя] 
+29.4  +9.4  29  +29  +29  жарко  1008.1  869.0         
04:54 15.07 ЮВ  16 км    5/0 3300 м
[средняя] 
+29.4  +8.3  27  +29  +29  жарко  1007.5  868.7  +28.9  +36.1     
05:54 15.07 ЮВ  16 км    8/0 3300 м
[средняя] 
+28.9  +8.3  27  +28  +28  жарко  1007.4  868.7         
06:54 15.07 Ю  16 км    5/0 3300 м
[средняя] 
+28.9  +8.3  27  +28  +28  жарко  1007.5  869.0         
07:54 15.07 Ю  16 км    ясно  +28.3  +8.9  30  +28  +28  жарко  1007.4  869.0         
08:54 15.07 З  16 км    5/0 3300 м
[средняя] 
+23.9  +14.4  55  +26  +26  жарко  1008.6  869.3         
09:54 15.07 нст  16 км    5/0 3300 м
[средняя] 
+21.7  +12.8  57  +24  +24  комфорт  1009.4  869.9         
10:54 15.07 З  16 км    2/0 3300 м
[средняя] 
+23.3  +14.4  57  +27  +27  душно  1009.8  870.5  +21.7  +29.4     
11:54 15.07   16 км    2/0 3300 м
[средняя] 
+22.2  +12.8  55  +25  +25  комфорт  1010.6  870.8         
12:54 15.07   16 км    2/0 4200 м
[средняя] 
+25.6  +12.8  45  +27  +28  жарко  1010.9  871.3         
13:54 15.07   16 км    2/0 4200 м
[средняя] 
+27.8  +11.7  37  +29  +32  жарко  1010.6  871.3         
14:54 15.07 З  16 км    2/0 4500 м
[средняя] 
+29.4  +9.4  29  +29  +33  жарко  1010.7  871.1         
15:54 15.07 Ю  16 км    2/0 4500 м
[средняя] 
+31.1  +9.4  26  +30  +37  жарко  1010.3  871.1         
16:54 15.07 нст  16 км    2/0 3300 м
[средняя] 
+33.3  +9.4  23  +32  +49  жарко  1009.8  870.8  +21.1  +33.3     
17:54 15.07 СЗ  16 км    5/0 3000 м
[средняя] 
+33.9  +10.6  24  +33  +42  жарко  1009.4  870.5         
18:54 15.07 З  16 км    5/0 3300 м
[средняя] 
+35.0  +9.4  21  +34  +42  очень
жарко 
1008.5  869.6         
19:54 15.07 СЗ  16 км    5/0 3300 м
[средняя верхняя] 
+35.6  +9.4  20  +34  +42  очень
жарко 
1007.9  869.3         
20:54 15.07 СЗ  6
{9} 
16 км    5/0 4500 м
[средняя] 
+35.0  +10.0  22  +34  +37  очень
жарко 
1008.2  869.0         
21:54 15.07 З  16 км    2/0 4500 м
[средняя] 
+36.1  +8.9  19  +34  +37  очень
жарко 
1007.3  868.2         
22:54 15.07 СЗ  16 км    2/0 2250 м
[средняя] 
+36.1  +8.9  19  +34  +37  очень
жарко 
1006.3  867.6  +32.2  +37.2     
23:54 15.07 С  16 км    2/0 4500 м
[средняя] 
+35.6  +8.9  20  +34  +37  очень
жарко 
1006.0  867.0         
00:54 16.07 С  16 км    2/0 4500 м
[средняя] 
+34.4  +7.8  19  +33  +34  жарко  1005.9  867.3         
01:54 16.07 С  16 км    2/0 4500 м
[средняя] 
+31.1  +6.7  22  +30  +30  жарко  1006.0  867.3         
02:54 16.07 ЮВ  16 км    2/0 4500 м
[средняя] 
+28.3  +6.1  24  +27  +27  жарко  1006.3  867.3         
03:54 16.07 Ю  16 км    ясно  +26.7  +6.7  28  +26  +26  жарко  1006.7  867.6         
04:54 16.07 Ю  16 км    ясно  +25.6  +5.6  28  +25  +25  комфорт  1006.3  867.3  +25.6  +36.1     
05:54 16.07 ЮЗ  16 км    ясно  +23.3  +5.6  32  +24  +24  комфорт  1006.8  867.6         
06:54 16.07   16 км    ясно  +22.8  +6.1  34  +23  +23  комфорт  1006.8  867.6         
07:54 16.07 Ю  16 км    ясно  +22.8  +6.1  34  +23  +23  комфорт  1006.8  867.9         

 

Местоположение метеостанции Salt Lake City International Airport: широта 40.7707 долгота -111.9650 высота над уровнем моря 1288 м.

В архиве по умолчанию представлена погода в Солт-Лейк-Сити за последние 1-2 суток. Обновление информации о фактической погоде в базе происходит ежечасно! Архивные данные за месяц целиком и за предыдущие месяцы Вы можете получить, выбрав интересующий диапазон дат из раскрывающегося списка и нажав кнопку "Ввод!".

Внимание! Архив погоды МЕТАР в базе сайта в настоящее время начинается c 1 января 2011 г. Нет смысла пытаться выбрать более раннюю дату.

Внимание! Время в таблицах - всемирное. Для получения местного времени необходимо прибавить поправку, которая в Солт-Лейк-Сити равна -7 ч.

Ветер - указаны скорость ветра в м/с и направление, откуда дует ветер: С - северный, СВ - северо-восточный, В - восточный, ЮВ - юго-восточный, Ю - южный, ЮЗ - юго-западный, З - западный, СЗ - северо-западный.
Видимость - горизонтальная дальность видимости в метрах или километрах. При видимости от 1 до 10 км при отсутствии осадков обычно наблюдается дымка, при ухудшении видимости до 1 км и менее - туман. В сухую погоду видимость может ухудшаться дымом, пылью или мглою.
Атмосферные явления - указаны явления, наблюдавшиеся в указанный момент времени.
Облачность - указаны через наклонную черту верхняя и нижняя облачность в баллах и высота нижней границы облаков в метрах. Внимание: облачность, как и прочие метеорологические величины в США измеряются автоматическими метеостанциями. Указанные значения в баллах носят условный характер и показывают процент времени, в течение которого, в среднем, лазерный луч высотомера отражался от облаков обратно.
T - Температура воздуха - температура, измеренная на высоте 2 м над землей.
Td - Температура точки росы - температура, при понижении до которой содержащийся в воздухе водяной пар достигнет насыщения.
f - Относительная влажность воздуха - влажноcть воздуха, измеренная на высоте 2 м над землей.
Te - Эффективная температура - температура, которую ощущает одетый по сезону человек в тени. Характеристика душности погоды. При расчете учитывается влияние влажности воздуха и скорости ветра на теплоощущения человека.
Tes - Эффективная температура на солнце - температура, которую ощущает человек, с поправкой на солнечный нагрев. Характеристика знойности погоды. Зависит от высоты солнца над горизонтом, облачности и скорости ветра. Ночью, в пасмурную погоду, а также при ветре 12 м/с и более поправка равна нулю.
P - Атмосферное давление - приведенное к уровню моря атмосферное давление.
Po - Атмосферное давление - измеренное на уровне метеостанции атмосферное давление.
Tmin - Минимальная температура - минимум температуры воздуха на высоте 2 м над землей.
Tmax - Максимальная температура - максимум температуры воздуха на высоте 2 м над землей.
R - Количество осадков - Количество выпавших осадков за 3 или 6 часов, мм.
SD - Снежный покров - Высота снежного покрова, см.